This demonstration page uses our WeatherBlox Daily Observations layout. Learn more.

Left ArrowRight Arrow

Hourly Observations for September 21, 2022

Temp ( °F °C ) Dew Point ( °F °C ) Humidity (%) Winds ( mph kmh ) Pressure ( in mb ) Visibility ( mi km ) Precip ( " mm )
12:53 am 00:53 Clear 71 21.7 59 15 66 66 NE 3 6 29.92 1013 10 16 0.00 0.00
4:53 am 04:53 Clear 66 18.9 57 13.9 73 73 NNE 14 22 29.97 1015 10 16 0.00 0.00
5:53 am 05:53 Clear 64 17.8 52 11.1 65 65 NNE 18 30 29.99 1016 10 16 0.00 0.00
6:53 am 06:53 Clear 63 17.2 50 10 63 63 NNE 15 24 30.02 1017 10 16 0.00 0.00
7:53 am 07:53 Sunny 62 16.7 49 9.4 62 62 NNE 17 28 30.08 1019 10 16 0.00 0.00
8:53 am 08:53 Cloudy 62 16.7 48 8.9 60 60 NNE 15 24 30.11 1020 10 16 0.00 0.00
9:53 am 09:53 Cloudy 63 17.2 46 7.8 54 54 NE 17 28 30.13 1020 10 16 0.00 0.00
10:53 am 10:53 Cloudy 65 18.3 45 7.2 48 48 NE 21 33 30.14 1021 10 16 0.00 0.00
11:53 am 11:53 Cloudy 63 17.2 43 6.1 48 48 NNE 18 30 30.15 1021 10 16 0.00 0.00
12:19 pm 12:19 Cloudy with Nearby Thunderstorms 62 16.7 43 6.1 50 50 NW 17 28 30.26 1025 10 16 0.00 0.00
12:26 pm 12:26 Cloudy with Nearby Thunderstorms 61 16.1 44 6.7 54 54 NW 13 20 30.27 1025 10 16 0.00 0.00
12:45 pm 12:45 Cloudy with Nearby Thunderstorms 55 12.8 49 9.4 80 80 N 10 17 30.29 1026 3 4 0.08 2.03
12:49 pm 12:49 Cloudy with Rain 55 13 48 9 77 77 N 10 17 30.29 1026 3 5 0.09 2.29
12:53 pm 12:53 Cloudy with Rain 55 12.8 49 9.4 80 80 N 9 15 30.28 1026 4 6 0.10 2.54
1:53 pm 13:53 Cloudy with Light Rain 54 12.2 50 10 86 86 NE 9 15 30.23 1024 10 16 0.13 3.30
2:53 pm 14:53 Cloudy with Light Rain 54 12.2 50 10 86 86 NE 13 20 30.19 1022 8 13 0.03 0.76
3:53 pm 15:53 Cloudy with Light Rain 56 13.3 51 10.6 84 84 N 8 13 30.20 1023 10 16 0.01 0.25
4:53 pm 16:53 Cloudy 57 13.9 48 8.9 72 72 N 12 19 30.19 1022 10 16 0.01 0.13
5:53 pm 17:53 Mostly Cloudy with Light Rain 53 11.7 48 8.9 83 83 N 12 19 30.21 1023 10 16 0.01 0.13
6:53 pm 18:53 Mostly Cloudy 53 11.7 49 9.4 86 86 N 9 15 30.22 1024 10 16 0.02 0.51
7:53 pm 19:53 Mostly Clear 53 11.7 50 10 89 89 N 7 11 30.23 1024 10 16 0.01 0.13
8:53 pm 20:53 Clear 54 12.2 50 10 86 86 N 6 9 30.24 1024 10 16 0.00 0.00
9:53 pm 21:53 Clear 54 12.2 51 10.6 90 90 Calm 30.26 1025 10 16 0.00 0.00
10:53 pm 22:53 Clear 54 12.2 50 10 86 86 N 6 9 30.26 1025 10 16 0.00 0.00
11:53 pm 23:53 Clear 54 12.2 50 10 86 86 N 7 11 30.27 1025 10 16 0.00 0.00

Powered by AerisWeather